Regional Weather Roundup
Issued by NWS

Home | Current Version | Previous Version | Text Only | Print | Product List | Glossary On
Versions: 1 2 3 4 5 6 7 8 9 10 11 12 13 14 15 16 17 18 19 20 21 22 23 24 25 26 27 28 29 30 31 32 33 34 35 36 37 38 39 40 41 42 43 44 45 46 47 48 49 50
000
ASUS43 KDMX 162206
RWRIA

WEATHER ROUNDUP FOR IOWA
NATIONAL WEATHER SERVICE DES MOINES IA
500 PM CDT WED AUG 16 2017

NOTE: "FAIR" INDICATES FEW OR NO CLOUDS BELOW 12,000 FEET WITH NO
SIGNIFICANT WEATHER AND/OR OBSTRUCTIONS TO VISIBILITY.

* - THESE STATIONS ARE NOT NWS STATIONS...THUS NOT UNDER NWS
QUALITY CONTROL.  THEY ALSO DO NOT REPORT WEATHER SUCH
AS PRECIPITATION OR FOG.

IAZ001>003-012>014-020>022-031>034-043>046-162300-
   NORTHWEST IOWA

CITY           SKY/WX    TMP DP  RH WIND       PRES   REMARKS
CARROLL *      PTSUNNY   82  70  65 SW16G22   29.72S HX  86
CHEROKEE *     CLOUDY    77  69  78 SW20G25   29.70S
DENISON *      PTSUNNY   79  68  69 W15G24    29.75R HX  81
LE MARS *      CLOUDY    70  66  88 W9G17     29.72R FOG
ORANGE CITY *  PTSUNNY   72  70  94 SW12      29.69S
SHELDON *      CLOUDY    73  72  94 S10       29.66F
SIOUX CITY     CLOUDY    72  67  84 NW10      29.75R
SPENCER        CLOUDY    75  70  84 S9        29.68F
STORM LAKE *     N/A     77  68  73 SW15G22   29.71S
$$

IAZ055>058-069>071-079>083-090>094-162300-
   SOUTHWEST IOWA

CITY           SKY/WX    TMP DP  RH WIND       PRES   REMARKS
ATLANTIC *     SUNNY     82  66  57 SW17      29.75F HX  85
AUDUBON *      MOSUNNY   82  70  65 S9G17     29.75S HX  86
CLARINDA *     PTSUNNY   82  70  65 SW14      29.81R HX  86
COUNCIL BLFS * CLOUDY    79  68  69 W9G22     29.77R HX  81
CRESTON *      PTSUNNY   82  66  57 SW15G21   29.79R HX  85
HARLAN  *      PTSUNNY   79  68  69 SW14      29.78S HX  81
LAMONI         MOSUNNY   84  68  58 SW13      29.78F HX  87
RED OAK *      MOSUNNY   82  66  57 SW13G21   29.77S HX  85
SHENANDOAH *   MOSUNNY   81  66  61 SW10G18   29.78S HX  83
$$

IAZ047>049-059>061-072>074-084-162300-
   CENTRAL IOWA

CITY           SKY/WX    TMP DP  RH WIND       PRES   REMARKS
AMES           CLOUDY    81  75  82 S15G22    29.73F HX  87
ANKENY *       PTSUNNY   84  70  61 S16       29.74F HX  88
BOONE *        CLOUDY    81  72  74 S12G17    29.72F HX  84
CHARITON *     MOSUNNY   82  70  65 S10G17    29.77F HX  86
DES MOINES     MOSUNNY   85  70  60 SW15      29.73F HX  89
GRINNELL*      PTSUNNY   80  71  74 S13G18    29.78F HX  83
KNOXVILLE *    PTSUNNY   84  68  58 S16G23    29.74F HX  87
MARSHALLTOWN   PTSUNNY   83  73  72 S18       29.74F HX  89
NEWTON *       PTSUNNY   81  72  74 S12G17    29.76S HX  84
PELLA *        MOSUNNY   83  69  63 S12G20    29.77S HX  86
PERRY *          N/A     83  74  73 S13G18    29.73F HX  90
$$

IAZ004>006-015-016-023>025-035-036-162300-
   NORTH CENTRAL IOWA

CITY           SKY/WX    TMP DP  RH WIND       PRES   REMARKS
ALGONA *       PTSUNNY   75  75 100 S15       29.71F
CLARION *      CLOUDY    75  75 100 S6        29.72F
ESTHERVILLE    LGT RAIN  71  69  93 S13       29.69S
FORT DODGE *   MOSUNNY   79  70  73 S15       29.72F HX  81
MASON CITY     CLOUDY    74  72  93 SE13      29.74F
FOREST CITY *  CLOUDY    77  72  83 SE15G25   29.72S
WEBSTER CITY * LGT RAIN  75  73  94 S8        29.70F
IOWA FALLS *   PTSUNNY   81  73  76 SE12      29.75F HX  86
$$

IAZ007>011-017>019-026>030-037>042-050>054-066-162300-
   NORTHEAST IOWA

CITY           SKY/WX    TMP DP  RH WIND       PRES   REMARKS
CEDAR RAPIDS   CLOUDY    81  73  76 S12G21    29.78F HX  86
CHARLES CITY * CLOUDY    75  75 100 SE10      29.76S
CLINTON *      CLOUDY    81  75  82 S8        29.82R HX  87
DECORAH *      RAIN      72  70  94 SE12G22   29.78S
DUBUQUE        CLOUDY    75  72  90 SE13      29.82F
MONTICELLO *   CLOUDY    81  73  78 S15G21    29.80S HX  85
OELWEIN *      CLOUDY    77  75  94 SE15      29.77F
WATERLOO       LGT RAIN  78  73  84 S10       29.74F HX  81
$$

IAZ064-065-067-068-078-162300-
   EAST CENTRAL IOWA

CITY           SKY/WX    TMP DP  RH WIND       PRES   REMARKS
DAVENPORT      CLOUDY    82  72  71 S13       29.83R HX  87
IOWA CITY      MOSUNNY   85  73  67 S12       29.79F HX  91
MT. PLEASANT * CLOUDY    79  70  74 S14       29.81R HX  82
MUSCATINE *    PTSUNNY   84  72  65 S10G18    29.80R HX  89
QUAD CITIES    CLOUDY    84  71  65 S12       29.80R HX  89
$$

IAZ062-063-075>077-085>089-095>099-162300-
   SOUTHEAST IOWA

CITY           SKY/WX    TMP DP  RH WIND       PRES   REMARKS
BURLINGTON     CLOUDY    81  73  76 S8        29.81R HX  86
FAIRFIELD *    CLOUDY    84  70  61 S15G21    29.78F HX  88
FORT MADISON * CLOUDY    81  73  78 S7        29.83R HX  85
KEOKUK *       CLOUDY    81  73  78 S15       29.80R HX  85
OSKALOOSA *    PTSUNNY   82  71  69 S12       29.78F HX  87
CENTERVILLE *    N/A     82  72  69 S8        29.80F HX  87
OTTUMWA        CLOUDY    85  71  63 S15G25    29.77F HX  90
WASHINGTON *   CLOUDY    82  73  74 S15       29.81S HX  88
$$

ABBREVIATIONS USED IN REMARKS
   TC - TEMPERATURES IN CELSIUS
  WCI - WIND CHILL INDEX
   HX - HEAT INDEX
  VSB - VISIBILITY
$$





USA.gov is the U.S. government's official web portal to all federal, state and local government web resources and services.